Back to catalog

STARLINK-35331

AliveCommunicationsVLEO
NORAD 66468·PAYLOAD·🇺🇸 United States

Launched Nov 15, 2025 from Cape Canaveral Space Force Station

Loading…

Next Passes (next 24 hours)

TLE

FreshSource: CelesTrak SupGP

Epoch: Sep 14, 2026, 14:14 UTC

1 66468C 25262N   26257.59354167  .00020507  00000+0  74377-3 0  2570
2 66468  43.0029 309.6809 0001519 283.6817  49.1054 15.27523529    11

Track STARLINK-35331 in real time with AllMySat

Download on the App Store